| time (UTC) | temp F | wind direction | speed knots | gust knots | rain 1hr in | rain 24hr in | rain mn in | humidity % | barometer mb |
| 20260507040503 | 78 | 119 | 1.7 | 6.1 | 0.00 | 0.00 | 0.00 | 91 | 1010.8 |
| 20260507040006 | 78 | 115 | 1.7 | 8.7 | 0.00 | 0.00 | 0.00 | 91 | 1010.7 |
| 20260507035502 | 78 | 107 | 1.7 | 7.8 | 0.00 | 0.00 | 0.00 | 90 | 1010.6 |
| 20260507035002 | 78 | 84 | 1.7 | 7.0 | 0.00 | 0.00 | 0.00 | 90 | 1010.5 |
| 20260507034500 | 78 | 101 | 2.6 | 7.0 | 0.00 | 0.00 | 0.00 | 90 | 1010.4 |
| 20260507034000 | 78 | 78 | 2.6 | 7.0 | 0.00 | 0.00 | 0.00 | 90 | 1010.4 |
| 20260507033600 | 78 | 110 | 2.6 | 5.2 | 0.00 | 0.00 | 0.00 | 90 | 1010.3 |
| 20260507033105 | 78 | 82 | 1.7 | 6.1 | 0.00 | 0.00 | 0.00 | 91 | 1010.3 |
| 20260507032559 | 78 | 82 | 1.7 | 6.1 | 0.00 | 0.00 | 0.00 | 90 | 1010.2 |
| 20260507032057 | 78 | 111 | 1.7 | 8.7 | 0.00 | 0.00 | 0.00 | 90 | 1010.0 |
| 20260507031607 | 78 | 92 | 4.3 | 8.7 | 0.00 | 0.00 | 0.00 | 90 | 1009.9 |
| 20260507031057 | 78 | 123 | 2.6 | 7.0 | 0.00 | 0.00 | 0.00 | 90 | 1010.0 |
| 20260507030555 | 78 | 102 | 2.6 | 7.8 | 0.00 | 0.00 | 0.00 | 90 | 1009.9 |
| 20260507030100 | 78 | 109 | 3.5 | 7.8 | 0.00 | 0.00 | 0.00 | 90 | 1009.8 |
| 20260507025559 | 78 | 98 | 3.5 | 7.8 | 0.00 | 0.00 | 0.00 | 90 | 1009.8 |
| 20260507025054 | 78 | 111 | 3.5 | 7.8 | 0.00 | 0.00 | 0.00 | 90 | 1009.8 |
| 20260507024554 | 78 | 123 | 3.5 | 7.0 | 0.00 | 0.00 | 0.00 | 90 | 1009.8 |
| 20260507024053 | 78 | 79 | 2.6 | 7.0 | 0.00 | 0.00 | 0.00 | 90 | 1009.7 |
| 20260507023552 | 78 | 88 | 3.5 | 7.0 | 0.00 | 0.00 | 0.00 | 90 | 1009.6 |
| 20260507023104 | 79 | 87 | 2.6 | 7.8 | 0.00 | 0.00 | 0.00 | 89 | 1009.5 |
| 20260507022551 | 79 | 72 | 3.5 | 7.8 | 0.00 | 0.00 | 0.00 | 89 | 1009.3 |
| 20260507022051 | 79 | 130 | 3.5 | 7.8 | 0.00 | 0.00 | 0.00 | 89 | 1009.3 |
| 20260507021551 | 79 | 111 | 4.3 | 9.6 | 0.00 | 0.00 | 0.00 | 89 | 1009.4 |
| 20260507021054 | 79 | 110 | 5.2 | 9.6 | 0.00 | 0.00 | 0.00 | 89 | 1009.2 |
| 20260507020549 | 79 | 134 | 3.5 | 7.8 | 0.00 | 0.00 | 0.00 | 89 | 1009.1 |
| 20260507020050 | 79 | 120 | 5.2 | 8.7 | 0.00 | 0.00 | 0.00 | 89 | 1009.0 |
| 20260507015548 | 79 | 119 | 4.3 | 8.7 | 0.00 | 0.00 | 0.00 | 89 | 1008.9 |
| 20260507015047 | 79 | 139 | 4.3 | 7.0 | 0.00 | 0.00 | 0.00 | 89 | 1008.8 |
| 20260507014552 | 79 | 134 | 2.6 | 11.3 | 0.00 | 0.00 | 0.00 | 89 | 1008.8 |
| 20260507014047 | 79 | 113 | 3.5 | 11.3 | 0.00 | 0.00 | 0.00 | 89 | 1008.7 |
| 20260507013545 | 79 | 132 | 4.3 | 9.6 | 0.00 | 0.00 | 0.00 | 89 | 1008.6 |
| 20260507013047 | 79 | 84 | 4.3 | 9.6 | 0.00 | 0.00 | 0.00 | 89 | 1008.4 |
| 20260507012545 | 79 | 121 | 5.2 | 9.6 | 0.00 | 0.00 | 0.00 | 88 | 1008.6 |
| 20260507012045 | 79 | 111 | 5.2 | 8.7 | 0.00 | 0.00 | 0.00 | 88 | 1008.5 |
| 20260507011547 | 79 | 97 | 3.5 | 7.8 | 0.00 | 0.00 | 0.00 | 87 | 1008.4 |
| 20260507011043 | 79 | 74 | 2.6 | 8.7 | 0.00 | 0.00 | 0.00 | 87 | 1008.4 |
| 20260507010544 | 79 | 114 | 5.2 | 8.7 | 0.00 | 0.00 | 0.00 | 87 | 1008.4 |
| 20260507010045 | 80 | 109 | 4.3 | 7.8 | 0.00 | 0.00 | 0.00 | 87 | 1008.4 |
| 20260507005544 | 80 | 102 | 4.3 | 7.8 | 0.00 | 0.00 | 0.00 | 86 | 1008.2 |
| 20260507005043 | 80 | 103 | 3.5 | 8.7 | 0.00 | 0.00 | 0.00 | 86 | 1008.2 |
| 20260507004542 | 80 | 97 | 3.5 | 8.7 | 0.00 | 0.00 | 0.00 | 85 | 1008.1 |
| 20260507004043 | 80 | 116 | 3.5 | 9.6 | 0.00 | 0.00 | 0.00 | 85 | 1008.0 |
| 20260507003546 | 80 | 136 | 5.2 | 9.6 | 0.00 | 0.00 | 0.00 | 85 | 1007.9 |
| 20260507003049 | 80 | 130 | 5.2 | 8.7 | 0.00 | 0.00 | 0.00 | 85 | 1007.8 |
| 20260507002542 | 81 | 121 | 3.5 | 8.7 | 0.00 | 0.00 | 0.00 | 85 | 1007.7 |
| 20260507002042 | 81 | 117 | 3.5 | 9.6 | 0.00 | 0.00 | 0.00 | 85 | 1007.6 |
| 20260507001544 | 81 | 99 | 3.5 | 10.4 | 0.00 | 0.00 | 0.00 | 85 | 1007.7 |
| 20260507001041 | 81 | 114 | 4.3 | 10.4 | 0.00 | 0.00 | 0.00 | 84 | 1007.6 |
| 20260507000545 | 81 | 149 | 3.5 | 10.4 | 0.00 | 0.00 | 0.00 | 84 | 1007.6 |
| 20260507000043 | 81 | 127 | 6.1 | 10.4 | 0.00 | 0.00 | 0.00 | 84 | 1007.5 |
| 20260506235541 | 81 | 126 | 4.3 | 9.6 | 0.00 | 0.00 | 0.00 | 84 | 1007.5 |
| 20260506235043 | 81 | 134 | 7.0 | 9.6 | 0.00 | 0.00 | 0.00 | 84 | 1007.4 |
| 20260506234540 | 81 | 78 | 3.5 | 9.6 | 0.00 | 0.00 | 0.00 | 84 | 1007.3 |
| 20260506234042 | 82 | 129 | 5.2 | 10.4 | 0.00 | 0.00 | 0.00 | 83 | 1007.3 |
| 20260506233540 | 82 | 132 | 5.2 | 10.4 | 0.00 | 0.00 | 0.00 | 83 | 1007.3 |
| 20260506233045 | 82 | 126 | 4.3 | 11.3 | 0.00 | 0.00 | 0.00 | 83 | 1007.4 |
| 20260506232540 | 82 | 118 | 4.3 | 11.3 | 0.00 | 0.00 | 0.00 | 83 | 1007.3 |
| 20260506232040 | 82 | 105 | 6.1 | 8.7 | 0.00 | 0.00 | 0.00 | 82 | 1007.2 |
| 20260506231541 | 82 | 126 | 4.3 | 10.4 | 0.00 | 0.00 | 0.00 | 83 | 1007.2 |
| 20260506231039 | 82 | 161 | 5.2 | 11.3 | 0.00 | 0.00 | 0.00 | 82 | 1007.3 |
| 20260506230538 | 82 | 131 | 2.6 | 12.2 | 0.00 | 0.00 | 0.00 | 82 | 1007.2 |
| 20260506230038 | 83 | 120 | 5.2 | 12.2 | 0.00 | 0.00 | 0.00 | 81 | 1007.1 |
| 20260506225539 | 83 | 165 | 2.6 | 7.8 | 0.00 | 0.00 | 0.00 | 81 | 1007.1 |
| 20260506225039 | 83 | 141 | 3.5 | 9.6 | 0.00 | 0.00 | 0.00 | 81 | 1007.1 |
| 20260506224538 | 83 | 159 | 4.3 | 9.6 | 0.00 | 0.00 | 0.00 | 81 | 1007.1 |
| 20260506224037 | 83 | 110 | 2.6 | 10.4 | 0.00 | 0.00 | 0.00 | 80 | 1007.1 |
| 20260506223537 | 84 | 152 | 5.2 | 10.4 | 0.00 | 0.00 | 0.00 | 80 | 1007.1 |
| 20260506223037 | 84 | 117 | 4.3 | 10.4 | 0.00 | 0.00 | 0.00 | 79 | 1007.0 |
| 20260506222537 | 84 | 153 | 4.3 | 10.4 | 0.00 | 0.00 | 0.00 | 79 | 1006.9 |
| 20260506222036 | 84 | 141 | 3.5 | 10.4 | 0.00 | 0.00 | 0.00 | 78 | 1007.0 |
| 20260506221537 | 84 | 121 | 4.3 | 10.4 | 0.00 | 0.00 | 0.00 | 78 | 1007.0 |
| 20260506221036 | 84 | 179 | 2.6 | 8.7 | 0.00 | 0.00 | 0.00 | 79 | 1006.9 |
| 20260506220536 | 84 | 137 | 2.6 | 8.7 | 0.00 | 0.00 | 0.00 | 80 | 1007.0 |
| 20260506220039 | 84 | 148 | 2.6 | 10.4 | 0.00 | 0.00 | 0.00 | 79 | 1007.0 |
| 20260506215539 | 84 | 98 | 4.3 | 10.4 | 0.00 | 0.00 | 0.00 | 79 | 1007.1 |
| 20260506215036 | 84 | 147 | 2.6 | 7.8 | 0.00 | 0.00 | 0.00 | 78 | 1007.1 |
| 20260506214535 | 85 | 197 | 3.5 | 7.0 | 0.00 | 0.00 | 0.00 | 77 | 1007.0 |
| 20260506214035 | 85 | 102 | 2.6 | 8.7 | 0.00 | 0.00 | 0.00 | 78 | 1007.0 |
| 20260506213534 | 85 | 129 | 3.5 | 8.7 | 0.00 | 0.00 | 0.00 | 77 | 1007.0 |
| 20260506213034 | 85 | 136 | 3.5 | 7.8 | 0.00 | 0.00 | 0.00 | 77 | 1007.0 |
| 20260506212534 | 85 | 186 | 2.6 | 8.7 | 0.00 | 0.00 | 0.00 | 76 | 1007.1 |
| 20260506212038 | 86 | 123 | 3.5 | 8.7 | 0.00 | 0.00 | 0.00 | 75 | 1007.0 |
| 20260506211535 | 86 | 188 | 3.5 | 7.8 | 0.00 | 0.00 | 0.00 | 75 | 1007.0 |
| 20260506211034 | 86 | 112 | 2.6 | 6.1 | 0.00 | 0.00 | 0.00 | 75 | 1007.0 |
| 20260506210534 | 86 | 132 | 2.6 | 9.6 | 0.00 | 0.00 | 0.00 | 75 | 1007.0 |
| 20260506210033 | 86 | 118 | 4.3 | 9.6 | 0.00 | 0.00 | 0.00 | 75 | 1007.0 |
| 20260506205537 | 86 | 118 | 4.3 | 10.4 | 0.00 | 0.00 | 0.00 | 75 | 1007.1 |
| 20260506205034 | 87 | 125 | 3.5 | 9.6 | 0.00 | 0.00 | 0.00 | 73 | 1007.1 |
| 20260506204534 | 87 | 202 | 2.6 | 10.4 | 0.00 | 0.00 | 0.00 | 75 | 1007.1 |
| 20260506204033 | 86 | 107 | 6.1 | 10.4 | 0.00 | 0.00 | 0.00 | 74 | 1007.2 |
| 20260506203532 | 87 | 130 | 4.3 | 9.6 | 0.00 | 0.00 | 0.00 | 74 | 1007.3 |
| 20260506203034 | 86 | 176 | 4.3 | 9.6 | 0.00 | 0.00 | 0.00 | 74 | 1007.2 |
| 20260506202531 | 86 | 124 | 3.5 | 8.7 | 0.00 | 0.00 | 0.00 | 74 | 1007.3 |
| 20260506202031 | 86 | 192 | 4.3 | 8.7 | 0.00 | 0.00 | 0.00 | 75 | 1007.4 |
| 20260506201532 | 85 | 107 | 3.5 | 10.4 | 0.00 | 0.00 | 0.00 | 77 | 1007.6 |
| 20260506201031 | 85 | 160 | 5.2 | 10.4 | 0.00 | 0.00 | 0.00 | 77 | 1007.6 |
| 20260506200533 | 85 | 125 | 5.2 | 10.4 | 0.00 | 0.00 | 0.00 | 76 | 1007.6 |
| 20260506200031 | 86 | 130 | 6.1 | 9.6 | 0.00 | 0.00 | 0.00 | 75 | 1007.7 |
| 20260506195531 | 86 | 131 | 1.7 | 7.8 | 0.00 | 0.00 | 0.00 | 76 | 1007.7 |
| 20260506195033 | 86 | 159 | 1.7 | 8.7 | 0.00 | 0.00 | 0.00 | 75 | 1007.7 |
| 20260506194530 | 86 | 111 | 2.6 | 8.7 | 0.00 | 0.00 | 0.00 | 75 | 1007.9 |
| 20260506194031 | 87 | 171 | 2.6 | 7.0 | 0.00 | 0.00 | 0.00 | 74 | 1008.1 |
| 20260506193529 | 87 | 164 | 3.5 | 7.0 | 0.00 | 0.00 | 0.00 | 74 | 1008.0 |
| 20260506193032 | 86 | 200 | 2.6 | 8.7 | 0.00 | 0.00 | 0.00 | 75 | 1008.0 |
| 20260506192533 | 86 | 126 | 2.6 | 8.7 | 0.00 | 0.00 | 0.00 | 75 | 1008.0 |
| 20260506192029 | 85 | 184 | 3.5 | 9.6 | 0.00 | 0.00 | 0.00 | 77 | 1008.2 |
| 20260506191529 | 85 | 160 | 4.3 | 9.6 | 0.00 | 0.00 | 0.00 | 77 | 1008.2 |
| 20260506191029 | 84 | 89 | 7.0 | 11.3 | 0.00 | 0.00 | 0.00 | 78 | 1008.3 |
| 20260506190532 | 84 | 130 | 4.3 | 11.3 | 0.00 | 0.00 | 0.00 | 79 | 1008.3 |
| 20260506190028 | 84 | 145 | 4.3 | 9.6 | 0.00 | 0.00 | 0.00 | 79 | 1008.5 |
| 20260506185528 | 83 | 133 | 2.6 | 7.0 | 0.00 | 0.00 | 0.00 | 81 | 1008.5 |
| 20260506185028 | 82 | 130 | 1.7 | 7.8 | 0.00 | 0.00 | 0.00 | 81 | 1008.6 |
| 20260506184528 | 83 | 200 | 3.5 | 7.8 | 0.00 | 0.00 | 0.00 | 81 | 1008.5 |
| 20260506184030 | 83 | 164 | 1.7 | 7.8 | 0.00 | 0.00 | 0.00 | 80 | 1008.6 |
| 20260506183527 | 83 | 175 | 2.6 | 11.3 | 0.00 | 0.00 | 0.00 | 80 | 1008.6 |
| 20260506183027 | 83 | 187 | 5.2 | 11.3 | 0.00 | 0.00 | 0.00 | 79 | 1008.6 |
| 20260506182527 | 84 | 174 | 1.7 | 6.1 | 0.00 | 0.00 | 0.00 | 78 | 1008.6 |
| 20260506182027 | 84 | 117 | 0.9 | 7.8 | 0.00 | 0.00 | 0.00 | 78 | 1008.6 |
| 20260506181528 | 85 | 155 | 2.6 | 7.8 | 0.00 | 0.00 | 0.00 | 77 | 1008.6 |
| 20260506181027 | 85 | 176 | 2.6 | 8.7 | 0.00 | 0.00 | 0.00 | 76 | 1008.6 |
| 20260506180527 | 86 | 201 | 0.0 | 3.5 | 0.00 | 0.00 | 0.00 | 74 | 1008.7 |
| 20260506180026 | 86 | 229 | 1.7 | 3.5 | 0.00 | 0.00 | 0.00 | 73 | 1008.6 |
| 20260506175525 | 87 | 196 | 0.0 | 5.2 | 0.00 | 0.00 | 0.00 | 73 | 1008.6 |
| 20260506175028 | 87 | 191 | 0.9 | 6.1 | 0.00 | 0.00 | 0.00 | 73 | 1008.6 |
| 20260506174525 | 87 | 202 | 2.6 | 6.1 | 0.00 | 0.00 | 0.00 | 72 | 1008.6 |
| 20260506174024 | 87 | 249 | 1.7 | 3.5 | 0.00 | 0.00 | 0.00 | 73 | 1008.4 |
| 20260506173523 | 86 | 242 | 0.0 | 3.5 | 0.00 | 0.00 | 0.00 | 75 | 1008.5 |
| 20260506173022 | 86 | 210 | 0.9 | 4.3 | 0.00 | 0.00 | 0.00 | 76 | 1008.5 |
| 20260506172520 | 85 | 164 | 1.7 | 5.2 | 0.00 | 0.00 | 0.00 | 77 | 1008.5 |
| 20260506172019 | 85 | 136 | 0.9 | 6.1 | 0.00 | 0.00 | 0.00 | 78 | 1008.7 |
| 20260506171521 | 84 | 172 | 3.5 | 6.1 | 0.00 | 0.00 | 0.00 | 79 | 1008.8 |
| 20260506171017 | 84 | 218 | 0.9 | 4.3 | 0.00 | 0.00 | 0.00 | 81 | 1008.6 |
| 20260506170515 | 83 | 188 | 1.7 | 5.2 | 0.00 | 0.00 | 0.00 | 83 | 1008.6 |
| 20260506170017 | 82 | 180 | 1.7 | 5.2 | 0.00 | 0.00 | 0.00 | 83 | 1008.6 |
| 20260506165515 | 82 | 222 | 0.9 | 3.5 | 0.00 | 0.00 | 0.00 | 84 | 1008.7 |
| 20260506165011 | 81 | 192 | 0.9 | 7.0 | 0.00 | 0.00 | 0.00 | 86 | 1008.8 |
| 20260506164510 | 81 | 196 | 1.7 | 7.0 | 0.00 | 0.00 | 0.00 | 87 | 1008.8 |
| 20260506164009 | 81 | 200 | 0.9 | 3.5 | 0.00 | 0.00 | 0.00 | 87 | 1008.8 |
| 20260506163507 | 80 | 192 | 0.9 | 4.3 | 0.00 | 0.00 | 0.00 | 87 | 1008.9 |
| 20260506163012 | 79 | 185 | 0.9 | 4.3 | 0.00 | 0.00 | 0.00 | 88 | 1008.8 |
| 20260506162507 | 79 | 195 | 1.7 | 5.2 | 0.00 | 0.00 | 0.00 | 89 | 1008.7 |
| 20260506162005 | 79 | 209 | 1.7 | 5.2 | 0.00 | 0.00 | 0.00 | 89 | 1008.7 |
| 20260506161504 | 79 | 180 | 1.7 | 5.2 | 0.00 | 0.00 | 0.00 | 89 | 1008.8 |
| 20260506161004 | 79 | 225 | 0.0 | 5.2 | 0.00 | 0.00 | 0.00 | 90 | 1008.7 |
| 20260506160506 | 79 | 202 | 2.6 | 7.0 | 0.00 | 0.00 | 0.00 | 89 | 1008.6 |
| 20260506160007 | 79 | 248 | 1.7 | 6.1 | 0.00 | 0.00 | 0.00 | 89 | 1008.5 |
| 20260506155502 | 79 | 217 | 1.7 | 7.8 | 0.00 | 0.00 | 0.00 | 89 | 1008.5 |
| 20260506155001 | 79 | 163 | 1.7 | 8.7 | 0.00 | 0.00 | 0.00 | 89 | 1008.3 |
| 20260506154628 | 79 | 192 | 1.7 | 7.0 | 0.00 | 0.00 | 0.00 | 89 | 1008.2 |
| 20260506154102 | 79 | 182 | 3.5 | 8.7 | 0.00 | 0.00 | 0.00 | 88 | 1008.1 |
| 20260506153601 | 79 | 199 | 1.7 | 8.7 | 0.00 | 0.00 | 0.00 | 88 | 1008.0 |
| 20260506153110 | 79 | 202 | 1.7 | 6.1 | 0.00 | 0.00 | 0.00 | 89 | 1008.0 |
| 20260506152559 | 79 | 175 | 1.7 | 6.1 | 0.00 | 0.00 | 0.00 | 89 | 1008.0 |
| 20260506152100 | 79 | 176 | 0.9 | 7.8 | 0.00 | 0.00 | 0.00 | 89 | 1008.0 |
| 20260506151600 | 79 | 146 | 1.7 | 7.0 | 0.00 | 0.00 | 0.00 | 89 | 1007.9 |
| 20260506151058 | 79 | 189 | 2.6 | 7.0 | 0.00 | 0.00 | 0.00 | 89 | 1007.9 |
| 20260506150558 | 79 | 133 | 1.7 | 6.1 | 0.00 | 0.00 | 0.00 | 89 | 1008.1 |
| 20260506145558 | 79 | 172 | 0.9 | 6.1 | 0.00 | 0.00 | 0.00 | 89 | 1008.2 |
| 20260506145057 | 79 | 233 | 1.7 | 7.8 | 0.00 | 0.00 | 0.00 | 89 | 1007.9 |
| 20260506144557 | 79 | 192 | 2.6 | 7.8 | 0.00 | 0.00 | 0.00 | 88 | 1007.9 |
| 20260506144056 | 79 | 183 | 1.7 | 6.1 | 0.00 | 0.00 | 0.00 | 88 | 1007.9 |
| 20260506143556 | 79 | 194 | 2.6 | 6.1 | 0.00 | 0.00 | 0.00 | 88 | 1007.9 |
| 20260506143105 | 79 | 188 | 1.7 | 6.1 | 0.00 | 0.00 | 0.00 | 88 | 1007.9 |
| 20260506142556 | 79 | 206 | 1.7 | 6.1 | 0.00 | 0.00 | 0.00 | 88 | 1008.0 |
| 20260506142055 | 79 | 186 | 1.7 | 6.1 | 0.00 | 0.00 | 0.00 | 88 | 1008.0 |
| 20260506141555 | 79 | 213 | 1.7 | 4.3 | 0.00 | 0.00 | 0.00 | 88 | 1008.0 |
| 20260506141057 | 79 | 179 | 1.7 | 7.8 | 0.00 | 0.00 | 0.00 | 87 | 1008.0 |
| 20260506140555 | 79 | 165 | 1.7 | 7.8 | 0.00 | 0.00 | 0.00 | 87 | 1008.0 |
| 20260506140058 | 79 | 121 | 0.9 | 8.7 | 0.00 | 0.00 | 0.00 | 87 | 1007.9 |
| 20260506135555 | 79 | 185 | 1.7 | 6.1 | 0.00 | 0.00 | 0.00 | 87 | 1007.9 |
| 20260506135052 | 79 | 167 | 1.7 | 7.0 | 0.00 | 0.00 | 0.00 | 87 | 1008.0 |
| 20260506134553 | 79 | 167 | 2.6 | 7.0 | 0.00 | 0.00 | 0.00 | 87 | 1007.8 |
| 20260506134052 | 79 | 142 | 1.7 | 6.1 | 0.00 | 0.00 | 0.00 | 88 | 1007.8 |
| 20260506133552 | 79 | 222 | 1.7 | 6.1 | 0.00 | 0.00 | 0.00 | 88 | 1007.8 |
| 20260506133051 | 79 | 190 | 0.9 | 4.3 | 0.00 | 0.00 | 0.00 | 88 | 1007.8 |
| 20260506132550 | 78 | 153 | 0.9 | 5.2 | 0.00 | 0.00 | 0.00 | 88 | 1007.9 |
| 20260506132054 | 78 | 173 | 0.9 | 5.2 | 0.00 | 0.00 | 0.00 | 88 | 1007.9 |
| 20260506131650 | 78 | 172 | 0.9 | 5.2 | 0.00 | 0.00 | 0.00 | 88 | 1008.0 |
| 20260506131050 | 78 | 198 | 1.7 | 6.1 | 0.00 | 0.00 | 0.00 | 88 | 1007.8 |
| 20260506130552 | 78 | 188 | 1.7 | 8.7 | 0.00 | 0.00 | 0.00 | 89 | 1007.7 |
| 20260506130050 | 78 | 166 | 2.6 | 8.7 | 0.00 | 0.00 | 0.00 | 89 | 1007.7 |
| 20260506125552 | 78 | 158 | 1.7 | 7.8 | 0.00 | 0.00 | 0.00 | 89 | 1007.7 |
| 20260506125052 | 78 | 159 | 0.9 | 7.8 | 0.00 | 0.00 | 0.00 | 89 | 1007.6 |
| 20260506124549 | 78 | 123 | 1.7 | 5.2 | 0.00 | 0.00 | 0.00 | 89 | 1007.6 |
| 20260506124052 | 78 | 180 | 0.9 | 6.1 | 0.00 | 0.00 | 0.00 | 89 | 1007.5 |
| 20260506123552 | 78 | 199 | 0.9 | 4.3 | 0.00 | 0.00 | 0.00 | 89 | 1007.6 |
| 20260506123049 | 78 | 140 | 0.9 | 3.5 | 0.00 | 0.00 | 0.00 | 89 | 1007.5 |
| 20260506122548 | 78 | 150 | 0.9 | 6.1 | 0.00 | 0.00 | 0.00 | 89 | 1007.5 |
| 20260506122047 | 78 | 150 | 2.6 | 6.1 | 0.00 | 0.00 | 0.00 | 88 | 1007.4 |
| 20260506121547 | 78 | 130 | 2.6 | 6.1 | 0.00 | 0.00 | 0.00 | 88 | 1007.5 |
| 20260506121047 | 78 | 139 | 1.7 | 6.1 | 0.00 | 0.00 | 0.00 | 88 | 1007.5 |
| 20260506120547 | 78 | 146 | 0.9 | 3.5 | 0.00 | 0.00 | 0.00 | 88 | 1007.4 |
| 20260506120056 | 78 | 146 | 1.7 | 3.5 | 0.00 | 0.00 | 0.00 | 88 | 1007.3 |
| 20260506115548 | 78 | 173 | 0.9 | 2.6 | 0.00 | 0.00 | 0.00 | 88 | 1007.3 |
| 20260506115047 | 78 | 173 | 0.0 | 3.5 | 0.00 | 0.00 | 0.00 | 88 | 1007.3 |
| 20260506114555 | 78 | 175 | 0.9 | 5.2 | 0.00 | 0.00 | 0.00 | 88 | 1007.3 |
| 20260506114049 | 78 | 173 | 0.9 | 5.2 | 0.00 | 0.00 | 0.00 | 88 | 1007.4 |
| 20260506113549 | 78 | 227 | 0.0 | 5.2 | 0.00 | 0.00 | 0.00 | 88 | 1007.2 |
| 20260506113046 | 78 | 227 | 1.7 | 5.2 | 0.00 | 0.00 | 0.00 | 88 | 1007.1 |
| 20260506112546 | 78 | 159 | 0.9 | 4.3 | 0.00 | 0.00 | 0.00 | 88 | 1007.1 |
| 20260506112048 | 78 | 159 | 0.9 | 5.2 | 0.00 | 0.00 | 0.00 | 88 | 1007.1 |
| 20260506111545 | 78 | 153 | 1.7 | 5.2 | 0.00 | 0.00 | 0.00 | 88 | 1007.1 |
| 20260506111045 | 78 | 157 | 0.9 | 4.3 | 0.00 | 0.00 | 0.00 | 88 | 1007.1 |
| 20260506110545 | 78 | 147 | 1.7 | 5.2 | 0.00 | 0.00 | 0.00 | 88 | 1007.1 |
| 20260506110054 | 78 | 147 | 0.9 | 3.5 | 0.00 | 0.00 | 0.00 | 88 | 1007.2 |
| 20260506105545 | 78 | 178 | 0.9 | 3.5 | 0.00 | 0.00 | 0.00 | 88 | 1007.1 |
| 20260506105044 | 78 | 180 | 0.9 | 2.6 | 0.00 | 0.00 | 0.00 | 88 | 1007.1 |
| 20260506104544 | 78 | 180 | 0.9 | 2.6 | 0.00 | 0.00 | 0.00 | 88 | 1007.1 |
| 20260506104145 | 78 | 180 | 0.9 | 3.5 | 0.00 | 0.00 | 0.00 | 88 | 1007.0 |
| 20260506103543 | 78 | 180 | 0.9 | 5.2 | 0.00 | 0.00 | 0.00 | 88 | 1007.0 |
| 20260506103043 | 78 | 111 | 0.9 | 5.2 | 0.00 | 0.00 | 0.00 | 88 | 1007.2 |
| 20260506102543 | 78 | 171 | 0.9 | 5.2 | 0.00 | 0.00 | 0.00 | 88 | 1007.2 |
| 20260506102044 | 78 | 132 | 0.9 | 3.5 | 0.00 | 0.00 | 0.00 | 88 | 1007.1 |
| 20260506101544 | 78 | 178 | 0.9 | 4.3 | 0.00 | 0.00 | 0.00 | 88 | 1007.0 |
| 20260506101047 | 78 | 123 | 2.6 | 4.3 | 0.00 | 0.00 | 0.00 | 88 | 1006.9 |
| 20260506100543 | 78 | 126 | 0.0 | 2.6 | 0.00 | 0.00 | 0.00 | 88 | 1006.9 |
| 20260506100046 | 78 | 182 | 0.9 | 5.2 | 0.00 | 0.00 | 0.00 | 88 | 1006.9 |
| 20260506095545 | 78 | 161 | 1.7 | 5.2 | 0.00 | 0.00 | 0.00 | 88 | 1006.9 |
| 20260506095042 | 78 | 175 | 1.7 | 5.2 | 0.00 | 0.00 | 0.00 | 88 | 1006.9 |
| 20260506094601 | 78 | 155 | 1.7 | 6.1 | 0.00 | 0.00 | 0.00 | 88 | 1006.8 |
| 20260506094042 | 78 | 159 | 1.7 | 6.1 | 0.00 | 0.00 | 0.00 | 88 | 1006.8 |
| 20260506093541 | 78 | 144 | 0.9 | 4.3 | 0.00 | 0.00 | 0.00 | 87 | 1006.9 |
| 20260506093044 | 78 | 188 | 0.9 | 3.5 | 0.00 | 0.00 | 0.00 | 87 | 1006.8 |
| 20260506092542 | 78 | 189 | 0.0 | 3.5 | 0.00 | 0.00 | 0.00 | 87 | 1006.9 |
| 20260506092041 | 78 | 189 | 0.9 | 5.2 | 0.00 | 0.00 | 0.00 | 87 | 1006.9 |
| 20260506091541 | 78 | 202 | 1.7 | 5.2 | 0.00 | 0.00 | 0.00 | 87 | 1006.7 |
| 20260506091040 | 78 | 161 | 2.6 | 6.1 | 0.00 | 0.00 | 0.00 | 87 | 1006.6 |
| 20260506090541 | 78 | 203 | 2.6 | 7.0 | 0.00 | 0.00 | 0.00 | 87 | 1006.6 |
| 20260506090041 | 78 | 232 | 1.7 | 6.1 | 0.00 | 0.00 | 0.00 | 87 | 1006.6 |
| 20260506085540 | 78 | 96 | 0.9 | 5.2 | 0.00 | 0.00 | 0.00 | 87 | 1006.6 |
| 20260506085040 | 78 | 126 | 1.7 | 7.8 | 0.00 | 0.00 | 0.00 | 87 | 1006.6 |
| 20260506084540 | 78 | 96 | 1.7 | 7.8 | 0.00 | 0.00 | 0.00 | 87 | 1006.6 |
| 20260506084044 | 78 | 217 | 2.6 | 8.7 | 0.00 | 0.00 | 0.00 | 87 | 1006.7 |
| 20260506083540 | 78 | 138 | 2.6 | 8.7 | 0.00 | 0.00 | 0.00 | 87 | 1006.5 |
| 20260506083040 | 78 | 165 | 3.5 | 8.7 | 0.00 | 0.00 | 0.00 | 87 | 1006.6 |
| 20260506082543 | 78 | 195 | 0.9 | 5.2 | 0.00 | 0.00 | 0.00 | 87 | 1006.6 |
| 20260506082039 | 78 | 202 | 1.7 | 7.8 | 0.00 | 0.00 | 0.00 | 87 | 1006.5 |
| 20260506081539 | 78 | 221 | 0.9 | 7.8 | 0.00 | 0.00 | 0.00 | 87 | 1006.5 |
| 20260506081038 | 78 | 156 | 2.6 | 7.8 | 0.00 | 0.00 | 0.00 | 87 | 1006.5 |
| 20260506080538 | 78 | 207 | 1.7 | 6.1 | 0.00 | 0.00 | 0.00 | 87 | 1006.5 |
| 20260506073040 | 78 | 209 | 2.6 | 12.2 | 0.00 | 0.00 | 0.00 | 85 | 1006.6 |
| 20260506072532 | 78 | 191 | 1.7 | 12.2 | 0.00 | 0.00 | 0.00 | 85 | 1006.8 |
| 20260506072034 | 78 | 155 | 2.6 | 7.0 | 0.00 | 0.00 | 0.00 | 85 | 1006.9 |
| 20260506071534 | 78 | 188 | 2.6 | 7.0 | 0.00 | 0.00 | 0.00 | 86 | 1007.0 |
| 20260506071030 | 78 | 192 | 1.7 | 6.1 | 0.00 | 0.00 | 0.00 | 86 | 1007.1 |
| 20260506070529 | 78 | 190 | 2.6 | 8.7 | 0.00 | 0.00 | 0.00 | 85 | 1007.2 |
| 20260506062024 | 78 | 171 | 2.6 | 7.8 | 0.00 | 0.00 | 0.00 | 85 | 1007.7 |
| 20260506061531 | 78 | 208 | 1.7 | 7.8 | 0.00 | 0.00 | 0.00 | 86 | 1007.6 |
| 20260506061026 | 78 | 223 | 3.5 | 7.8 | 0.00 | 0.00 | 0.00 | 86 | 1007.6 |
| 20260506060522 | 78 | 167 | 1.7 | 7.0 | 0.00 | 0.00 | 0.00 | 87 | 1007.6 |
| 20260506051017 | 78 | 184 | 1.7 | 7.0 | 0.00 | 0.00 | 0.00 | 86 | 1007.9 |
| 20260506050518 | 78 | 207 | 2.6 | 9.6 | 0.00 | 0.00 | 0.00 | 86 | 1007.9 |
| 20260506045015 | 78 | 177 | 2.6 | 10.4 | 0.00 | 0.00 | 0.00 | 86 | 1007.7 |
| 20260506044515 | 78 | 170 | 4.3 | 13.0 | 0.00 | 0.00 | 0.00 | 86 | 1007.9 |
| 20260506044018 | 78 | 216 | 3.5 | 13.0 | 0.00 | 0.00 | 0.00 | 86 | 1007.9 |
| 20260506043514 | 78 | 194 | 2.6 | 13.9 | 0.00 | 0.00 | 0.00 | 86 | 1007.7 |
| 20260506043014 | 78 | 199 | 4.3 | 13.9 | 0.00 | 0.00 | 0.00 | 86 | 1007.7 |
| 20260506042516 | 78 | 254 | 3.5 | 9.6 | 0.00 | 0.00 | 0.00 | 86 | 1007.6 |
| 20260506042018 | 78 | 155 | 3.5 | 9.6 | 0.00 | 0.00 | 0.00 | 86 | 1007.8 |
| 20260506041517 | 78 | 166 | 2.6 | 5.2 | 0.00 | 0.00 | 0.00 | 86 | 1007.7 |
| 20260506041013 | 78 | 179 | 1.7 | 7.0 | 0.00 | 0.00 | 0.00 | 87 | 1007.7 |